FW1757 Weather Reports


time (UTC)temp
C
wind
direction
speed
KPH
gust
KPH
rain 1hr
cm
rain 24hr
cm
rain mn
cm
humidity
%
barometer
mb
20260903211522 20 290 0.0 0.0 0.00 0.36 0.00 48 1008.4
20260903211020 20 324 0.0 0.0 0.00 0.36 0.00 48 1008.4
20260903210521 20 13 0.0 0.0 0.00 0.36 0.00 48 1008.5
20260903210017 20 11 0.0 0.0 0.00 0.43 0.00 51 1008.7
20260903205517 20 61 0.0 0.0 0.00 0.43 0.00 53 1008.8
20260903205014 20 355 0.0 0.0 0.00 0.43 0.00 53 1008.8
20260903204512 19 342 0.0 0.0 0.00 0.43 0.00 57 1008.7
20260903204011 18 310 0.0 0.0 0.00 0.43 0.00 55 1008.8
20260903203512 18 347 0.0 0.0 0.00 0.43 0.00 55 1008.8
20260903203015 18 355 0.0 0.0 0.00 0.43 0.00 58 1008.8
20260903202507 18 355 0.0 0.0 0.00 0.43 0.00 56 1008.9
20260903202006 18 355 0.0 0.0 0.00 0.43 0.00 59 1008.9
20260903201503 18 355 0.0 0.0 0.00 0.43 0.00 60 1009.0
20260903201002 18 355 0.0 0.0 0.00 0.43 0.00 61 1009.0
20260903200501 17 294 0.0 0.0 0.00 0.43 0.00 61 1009.0
20260903200108 17 294 0.0 0.0 0.00 0.43 0.00 61 1009.2
20260903195558 17 292 0.0 0.0 0.00 0.53 0.00 62 1009.2
20260903195059 17 292 0.0 0.0 0.00 0.53 0.00 65 1009.4
20260903194556 17 292 0.0 0.0 0.00 0.53 0.00 67 1009.6
20260903194053 16 345 0.0 0.0 0.00 0.53 0.00 66 1009.5
20260903193552 16 319 0.0 0.0 0.00 0.53 0.00 64 1009.6
20260903193055 16 319 0.0 0.0 0.00 0.53 0.00 62 1009.7
20260903192550 16 314 0.0 0.0 0.00 0.53 0.00 61 1009.7
20260903192048 16 312 0.0 0.0 0.00 0.53 0.00 53 1009.8
20260903191558 16 316 0.0 0.0 0.00 0.53 0.00 57 1009.9
20260903191045 15 331 0.0 0.0 0.00 0.53 0.00 61 1009.9
20260903190544 15 331 0.0 0.0 0.00 0.53 0.00 61 1009.9
20260903190041 16 331 0.0 0.0 0.00 0.53 0.00 55 1010.0
20260903185539 15 331 0.0 0.0 0.00 0.53 0.00 56 1010.1
20260903185039 15 331 0.0 0.0 0.00 0.53 0.00 54 1010.1
20260903184540 15 331 0.0 0.0 0.00 0.53 0.00 44 1010.1
20260903184036 15 330 0.0 0.0 0.00 0.53 0.00 41 1010.1
20260903183538 15 330 0.0 0.0 0.00 0.53 0.00 22 1010.0
20260903183049 15 331 0.0 0.0 0.00 0.53 0.00 29 1010.1
20260903182531 14 247 0.0 0.0 0.00 0.53 0.00 13 1010.2
20260903182031 14 246 0.0 0.0 0.00 0.53 0.00 1 1010.0
20260903181529 13 224 0.0 0.0 0.00 0.53 0.00 1 1010.2
20260903181030 12 224 0.0 0.0 0.00 0.53 0.00 1 1010.1
20260903180526 12 224 0.0 0.0 0.00 0.53 0.00 1 1010.1
20260903180034 12 224 0.0 0.0 0.00 0.53 0.00 1 1010.2
20260903175522 12 224 0.0 0.0 0.00 0.53 0.00 1 1010.2
20260903175021 12 224 0.0 0.0 0.00 0.53 0.00 1 1010.2
20260903174524 11 224 0.0 0.0 0.00 0.53 0.00 1 1010.2
20260903174019 11 224 0.0 0.0 0.00 0.53 0.00 1 1010.3
20260903173516 11 224 0.0 0.0 0.00 0.53 0.00 1 1010.3
20260903173015 11 224 0.0 0.0 0.00 0.53 0.00 1 1010.3
20260903172515 11 224 0.0 0.0 0.00 0.53 0.00 1 1010.3
20260903172012 11 224 0.0 0.0 0.00 0.53 0.00 1 1010.3
20260903171518 11 221 0.0 0.0 0.00 0.53 0.00 1 1010.3
20260903171009 11 221 0.0 0.0 0.00 0.53 0.00 1 1010.3
20260903170513 11 221 0.0 0.0 0.00 0.53 0.00 1 1010.3
20260903170013 11 221 0.0 0.0 0.00 0.53 0.00 1 1010.4
20260903165504 11 221 0.0 0.0 0.00 0.53 0.00 1 1010.3
20260903165003 11 221 0.0 0.0 0.00 0.53 0.00 1 1010.3
20260903164502 11 221 0.0 0.0 0.00 0.53 0.00 1 1010.3
20260903164004 11 221 0.0 0.0 0.00 0.53 0.00 1 1010.3
20260903163600 11 221 0.0 0.0 0.00 0.53 0.00 1 1010.3
20260903163058 11 221 0.0 0.0 0.00 0.53 0.00 1 1010.3
20260903162556 11 220 0.0 0.0 0.00 0.53 0.00 1 1010.3
20260903162055 11 200 0.0 0.0 0.00 0.53 0.00 1 1010.3
20260903161612 11 360 0.0 0.0 0.00 0.53 0.00 1 1010.3
20260903161055 10 360 0.0 0.0 0.00 0.53 0.00 1 1010.1
20260903160551 10 360 0.0 0.0 0.00 0.53 0.00 1 1010.2
20260903160050 10 360 0.0 0.0 0.00 0.53 0.00 1 1010.3
20260903155548 10 360 0.0 0.0 0.00 0.53 0.00 1 1010.3
20260903155046 10 360 0.0 0.0 0.00 0.53 0.00 1 1010.3
20260903154545 10 360 0.0 0.0 0.00 0.53 0.00 1 1010.2
20260903154044 10 360 0.0 0.0 0.00 0.53 0.00 1 1010.3
20260903153542 10 360 0.0 0.0 0.00 0.53 0.00 1 1010.4
20260903153040 10 360 0.0 0.0 0.00 0.53 0.00 1 1010.5
20260903152539 10 360 0.0 0.0 0.00 0.53 0.00 1 1010.5
20260903152037 10 360 0.0 0.0 0.00 0.53 0.00 1 1010.3
20260903151541 10 360 0.0 0.0 0.00 0.53 0.00 1 1010.4
20260903151035 10 360 0.0 0.0 0.00 0.53 0.00 1 1010.3
20260903150534 10 360 0.0 0.0 0.00 0.53 0.00 1 1010.2
20260903150031 10 360 0.0 0.0 0.00 0.53 0.00 1 1010.3
20260903145530 10 360 0.0 0.0 0.00 0.53 0.00 1 1010.3
20260903145029 10 360 0.0 0.0 0.00 0.53 0.00 1 1010.2
20260903144528 10 360 0.0 0.0 0.00 0.53 0.00 1 1010.1
20260903144027 10 360 0.0 0.0 0.00 0.53 0.00 1 1010.1
20260903143524 10 360 0.0 0.0 0.00 0.53 0.00 1 1010.1
20260903143034 10 360 0.0 0.0 0.00 0.53 0.00 1 1010.3
20260903142522 10 360 0.0 0.0 0.00 0.53 0.00 1 1010.2
20260903142024 10 360 0.0 0.0 0.00 0.53 0.00 1 1010.2
20260903141519 10 360 0.0 0.0 0.00 0.53 0.00 1 1010.1
20260903141017 10 360 0.0 0.0 0.00 0.53 0.00 1 1010.1
20260903140516 10 360 0.0 0.0 0.00 0.53 0.00 1 1010.0
20260903140017 10 360 0.0 0.0 0.00 0.53 0.00 1 1010.0
20260903135512 10 360 0.0 0.0 0.00 0.53 0.00 1 1009.9
20260903135011 9 360 0.0 0.0 0.00 0.53 0.00 1 1009.9
20260903134510 9 360 0.0 0.0 0.00 0.53 0.00 1 1010.0
20260903134008 9 360 0.0 0.0 0.00 0.53 0.00 1 1009.8
20260903133507 9 360 0.0 0.0 0.00 0.53 0.00 1 1009.8
20260903133006 9 360 0.0 0.0 0.00 0.53 0.00 1 1009.8
20260903132504 9 360 0.0 0.0 0.00 0.53 0.00 1 1009.7
20260903132003 10 360 0.0 0.0 0.00 0.53 0.00 1 1009.7
20260903131503 10 360 0.0 0.0 0.00 0.53 0.00 1 1009.7
20260903131102 9 360 0.0 0.0 0.00 0.53 0.00 1 1009.7
20260903130559 9 360 0.0 0.0 0.00 0.53 0.00 1 1009.5
20260903125556 9 360 0.0 0.0 0.00 0.53 0.00 1 1009.6
20260903125054 9 360 0.0 0.0 0.00 0.53 0.00 1 1009.6
20260903124600 9 360 0.0 0.0 0.00 0.53 0.00 1 1009.6
20260903124050 9 360 0.0 0.0 0.00 0.53 0.00 1 1009.8
20260903123549 9 360 0.0 0.0 0.00 0.53 0.00 1 1009.7
20260903123048 9 360 0.0 0.0 0.00 0.53 0.00 1 1009.6
20260903122547 9 360 0.0 0.0 0.00 0.53 0.00 1 1009.8
20260903122046 9 360 0.0 0.0 0.00 0.53 0.00 1 1009.7
20260903121549 10 360 0.0 0.0 0.00 0.53 0.00 1 1009.6
20260903121042 10 360 0.0 0.0 0.00 0.53 0.00 1 1009.6
20260903120543 10 360 0.0 0.0 0.00 0.53 0.00 1 1009.7
20260903120039 10 360 0.0 0.0 0.00 0.53 0.00 1 1009.7
20260903115537 10 360 0.0 0.0 0.00 0.53 0.00 1 1009.7
20260903115036 10 360 0.0 0.0 0.00 0.53 0.00 1 1009.7
20260903114535 10 360 0.0 0.0 0.00 0.53 0.00 1 1009.7
20260903114035 10 360 0.0 0.0 0.00 0.53 0.00 1 1009.5
20260903113532 10 360 0.0 0.0 0.00 0.53 0.00 1 1009.5
20260903113032 10 360 0.0 0.0 0.00 0.53 0.00 1 1009.5
20260903112529 10 360 0.0 0.0 0.00 0.53 0.00 1 1009.5
20260903112027 10 360 0.0 0.0 0.00 0.53 0.00 1 1009.6
20260903111526 10 360 0.0 0.0 0.00 0.53 0.00 1 1009.6
20260903111025 10 360 0.0 0.0 0.00 0.53 0.00 1 1009.5
20260903110523 10 360 0.0 0.0 0.00 0.53 0.00 1 1009.2
20260903110022 10 360 0.0 0.0 0.00 0.53 0.00 1 1009.2
20260903105520 10 360 0.0 0.0 0.00 0.53 0.00 1 1009.2
20260903105020 10 360 0.0 0.0 0.00 0.53 0.00 1 1009.3
20260903104524 10 360 0.0 0.0 0.00 0.53 0.00 1 1009.1
20260903104017 10 360 0.0 0.0 0.00 0.53 0.00 1 1009.1
20260903103516 10 360 0.0 0.0 0.00 0.53 0.00 1 1009.1
20260903103013 10 360 0.0 0.0 0.00 0.53 0.00 1 1009.1
20260903102512 10 360 0.0 0.0 0.00 0.53 0.00 1 1009.0
20260903102012 10 360 0.0 0.0 0.00 0.53 0.00 1 1009.0
20260903101513 10 360 0.0 0.0 0.00 0.53 0.00 1 1009.1
20260903101007 10 360 0.0 0.0 0.00 0.53 0.00 1 1009.1
20260903100506 10 360 0.0 0.0 0.00 0.53 0.00 1 1009.0
20260903100016 10 360 0.0 0.0 0.00 0.53 0.00 1 1008.9
20260903095504 10 360 0.0 0.0 0.00 0.53 0.00 1 1009.0
20260903095003 10 360 0.0 0.0 0.00 0.53 0.00 1 1009.0
20260903094610 10 360 0.0 0.0 0.00 0.53 0.00 1 1009.0
20260903094059 10 360 0.0 0.0 0.00 0.53 0.00 1 1008.9
20260903093559 10 360 0.0 0.0 0.00 0.53 0.00 1 1009.0
20260903093056 10 360 0.0 0.0 0.00 0.53 0.00 1 1009.0
20260903092555 10 360 0.0 0.0 0.00 0.53 0.00 1 1009.0
20260903092054 10 360 0.0 0.0 0.00 0.53 0.00 1 1008.9
20260903091557 10 360 0.0 0.0 0.00 0.53 0.00 1 1009.0
20260903091053 10 360 0.0 0.0 0.00 0.53 0.00 1 1008.9
20260903090549 10 360 0.0 0.0 0.00 0.53 0.00 1 1008.9
20260903090047 10 360 0.0 0.0 0.00 0.53 0.00 1 1008.9
20260903085545 10 360 0.0 0.0 0.00 0.53 0.00 1 1008.9
20260903085048 10 360 0.0 0.0 0.00 0.53 0.00 1 1008.9
20260903084543 10 360 0.0 0.0 0.00 0.53 0.00 1 1008.9
20260903084042 10 360 0.0 0.0 0.00 0.53 0.00 1 1008.8
20260903083540 10 360 0.0 0.0 0.00 0.53 0.00 1 1008.7
20260903083038 10 360 0.0 0.0 0.00 0.53 0.00 1 1008.7
20260903082539 10 360 0.0 0.0 0.00 0.53 0.00 1 1008.7
20260903082036 10 360 0.0 0.0 0.00 0.53 0.00 1 1008.6
20260903081534 10 360 0.0 0.0 0.00 0.53 0.00 1 1008.8
20260903081036 10 360 0.0 0.0 0.00 0.53 0.00 1 1008.8
20260903080533 10 360 0.0 0.0 0.00 0.53 0.00 1 1008.6
20260903080030 10 360 0.0 0.0 0.00 0.53 0.00 1 1008.7
20260903075529 10 360 0.0 0.0 0.00 0.53 0.00 1 1008.6
20260903075030 10 360 0.0 0.0 0.00 0.53 0.00 1 1008.5
20260903074525 10 360 0.0 0.0 0.00 0.53 0.00 1 1008.5
20260903074024 10 360 0.0 0.0 0.00 0.53 0.00 1 1008.5
20260903073522 10 360 0.0 0.0 0.00 0.53 0.00 1 1008.4
20260903073047 10 360 0.0 0.0 0.00 0.53 0.00 1 1008.2
20260903072509 11 360 0.0 0.0 0.00 0.53 0.00 1 1008.1
20260903072008 11 360 0.0 0.0 0.00 0.53 0.00 1 1008.1
20260903071507 11 360 0.0 0.0 0.00 0.53 0.00 1 1008.1
20260903071004 11 360 0.0 0.0 0.00 0.53 0.00 1 1008.1
20260903070503 11 360 0.0 0.0 0.00 0.53 0.00 1 1008.0
20260903070003 11 360 0.0 0.0 0.00 0.53 0.53 1 1008.1
20260903065600 11 360 0.0 0.0 0.00 0.53 0.53 1 1008.0
20260903065059 11 360 0.0 0.0 0.00 0.53 0.53 1 1008.0
20260903064601 11 360 0.0 0.0 0.00 0.53 0.53 1 1008.0
20260903064056 11 360 0.0 0.0 0.00 0.53 0.53 1 1008.0
20260903063556 11 360 0.0 0.0 0.00 0.53 0.53 1 1008.0
20260903063113 11 360 0.0 0.0 0.00 0.53 0.53 1 1008.0
20260903062553 11 360 0.0 0.0 0.00 0.53 0.53 1 1007.9
20260903062049 11 182 0.0 0.0 0.00 0.53 0.53 1 1008.0
20260903061549 11 182 0.0 0.0 0.00 0.53 0.53 1 1008.0
20260903061051 11 182 0.0 0.0 0.00 0.53 0.53 1 1008.0
20260903060545 11 200 0.0 0.0 0.00 0.53 0.53 1 1008.1
20260903060044 12 231 0.0 0.0 0.00 0.53 0.53 1 1007.9
20260903055544 12 235 0.0 0.0 0.00 0.53 0.53 1 1008.0
20260903055044 12 235 0.0 0.0 0.00 0.53 0.53 1 1008.0
20260903054540 12 274 0.0 0.0 0.00 0.53 0.53 1 1007.7
20260903054038 12 234 0.0 0.0 0.00 0.53 0.53 1 1007.8
20260903053537 12 228 0.0 0.0 0.00 0.53 0.53 1 1007.9
20260903053036 12 228 0.0 0.0 0.00 0.53 0.53 1 1007.9
20260903052534 12 228 0.0 0.0 0.00 0.53 0.53 1 1007.8
20260903052033 12 226 0.0 0.0 0.00 0.53 0.53 1 1007.9
20260903051532 12 226 0.0 0.0 0.00 0.53 0.53 1 1008.0
20260903051029 12 226 0.0 0.0 0.00 0.53 0.53 1 1007.9
20260903050528 12 226 0.0 0.0 0.00 0.53 0.53 1 1007.8
20260903050027 12 236 0.0 0.0 0.00 0.53 0.53 1 1007.8
20260903045528 12 236 0.0 0.0 0.00 0.53 0.53 1 1007.7
20260903045023 12 236 0.0 0.0 0.00 0.53 0.53 1 1007.8
20260903044523 12 236 0.0 0.0 0.03 0.53 0.53 1 1007.7
20260903044023 12 236 0.0 0.0 0.03 0.53 0.53 1 1007.8
20260903043519 12 236 0.0 0.0 0.03 0.53 0.53 1 1007.7
20260903043017 12 244 0.0 0.0 0.03 0.53 0.53 1 1007.7
20260903042516 12 227 0.0 0.0 0.03 0.53 0.53 1 1007.6
20260903042015 12 250 0.0 0.0 0.03 0.53 0.53 1 1007.5
20260903041513 12 217 0.0 0.0 0.03 0.53 0.53 1 1007.5
20260903041011 12 226 0.0 0.0 0.03 0.53 0.53 1 1007.4
20260903040510 12 237 0.0 0.0 0.03 0.53 0.53 1 1007.2
20260903040009 12 237 0.0 0.0 0.03 0.53 0.53 1 1007.2
20260903035506 13 284 0.0 0.0 0.03 0.53 0.53 1 1007.2
20260903035005 13 306 0.0 0.0 0.00 0.51 0.51 1 1007.2
20260903034512 13 290 0.0 0.0 0.00 0.51 0.51 1 1007.1
20260903034002 13 285 0.0 0.0 0.03 0.51 0.51 1 1006.9
20260903033500 13 280 0.0 0.0 0.08 0.51 0.51 1 1007.1
20260903033102 13 280 0.0 0.0 0.10 0.51 0.51 1 1007.0
20260903032558 13 293 0.0 0.0 0.10 0.51 0.51 1 1006.9
20260903032057 13 293 0.0 0.0 0.13 0.51 0.51 1 1006.8
20260903031555 13 280 0.0 0.0 0.13 0.51 0.51 1 1006.7
20260903031056 13 281 0.0 0.0 0.15 0.51 0.51 1 1006.7
20260903030554 13 305 0.0 0.0 0.15 0.51 0.51 1 1006.7
20260903030104 13 289 0.0 0.0 0.15 0.51 0.51 1 1006.6
20260903025549 13 281 0.0 0.0 0.15 0.51 0.51 1 1006.6
20260903025049 14 281 0.0 0.0 0.15 0.51 0.51 1 1006.7
20260903024546 14 262 0.0 0.0 0.15 0.51 0.51 1 1006.6
20260903024044 14 263 0.0 0.0 0.13 0.48 0.48 1 1006.5
20260903023545 14 281 0.0 0.0 0.08 0.43 0.43 1 1006.6
20260903023043 14 281 0.0 0.0 0.05 0.41 0.41 1 1006.5
20260903022541 14 292 0.0 0.0 0.05 0.41 0.41 1 1006.5
20260903022043 15 286 0.0 0.0 0.05 0.38 0.38 1 1006.6
20260903021538 15 287 0.0 0.0 0.05 0.38 0.38 1 1006.5
20260903021037 15 25 0.0 0.0 0.03 0.36 0.36 1 1006.3
20260903020534 15 25 0.0 0.0 0.03 0.36 0.36 1 1005.9
20260903020043 15 25 0.0 0.0 0.03 0.36 0.36 1 1005.9
20260903015532 15 25 0.0 0.0 0.03 0.36 0.36 1 1005.9
20260903015029 15 25 0.0 0.0 0.03 0.36 0.36 1 1005.9
20260903014528 15 25 0.0 0.0 0.03 0.36 0.36 1 1005.9
20260903014029 15 25 0.0 0.0 0.05 0.36 0.36 1 1006.0
20260903013526 15 25 0.0 0.0 0.05 0.36 0.36 1 1006.0
20260903013025 15 25 0.0 0.0 0.05 0.36 0.36 1 1006.1
20260903012523 15 25 0.0 0.0 0.05 0.36 0.36 1 1005.9
20260903012021 15 25 0.0 0.0 0.03 0.33 0.33 1 1006.1
20260903011520 15 25 0.0 0.0 0.03 0.33 0.33 1 1005.8
20260903011019 15 25 0.0 0.0 0.03 0.33 0.33 2 1006.0
20260903010517 15 25 0.0 0.0 0.03 0.33 0.33 3 1006.1
20260903010016 15 25 0.0 0.0 0.03 0.33 0.33 3 1006.0
20260903005514 15 25 0.0 0.0 0.03 0.33 0.33 2 1006.2
20260903005012 15 25 0.0 0.0 0.03 0.33 0.33 2 1006.0
20260903004511 15 25 0.0 0.0 0.03 0.33 0.33 3 1006.3
20260903004010 15 25 0.0 0.0 0.03 0.30 0.30 4 1006.2
20260903003509 15 25 0.0 0.0 0.03 0.30 0.30 3 1006.4
20260903003008 15 25 0.0 0.0 0.03 0.30 0.30 3 1006.2
20260903002507 15 25 0.0 0.0 0.03 0.30 0.30 4 1006.2
20260903002003 16 25 0.0 0.0 0.03 0.30 0.30 4 1006.2
20260903001503 16 25 0.0 0.0 0.03 0.30 0.30 7 1006.1
20260903001003 16 25 0.0 0.0 0.03 0.30 0.30 9 1006.1
20260903000600 16 25 0.0 0.0 0.03 0.30 0.30 10 1006.1
20260903000059 16 25 0.0 0.0 0.03 0.30 0.30 10 1006.1
20260902235557 16 25 0.0 0.0 0.03 0.30 0.30 7 1006.1
20260902235058 16 25 0.0 0.0 0.03 0.30 0.30 7 1005.9
20260902234554 16 25 0.0 0.0 0.03 0.30 0.30 6 1006.0
20260902234052 16 25 0.0 0.0 0.00 0.28 0.28 8 1006.1
20260902233551 16 25 0.0 0.0 0.00 0.28 0.28 7 1006.3
20260902233100 16 25 0.0 0.0 0.00 0.28 0.28 8 1006.3
20260902232548 16 25 0.0 0.0 0.00 0.28 0.28 8 1006.2
20260902232048 16 61 0.0 0.0 0.03 0.28 0.28 7 1006.3
20260902231547 16 61 0.0 0.0 0.03 0.28 0.28 8 1006.4
20260902231046 16 61 0.0 0.0 0.03 0.28 0.28 7 1006.5
20260902230542 16 61 0.0 0.0 0.03 0.28 0.28 7 1006.4
20260902230042 16 61 0.0 0.0 0.03 0.28 0.28 8 1006.2
20260902225541 16 61 0.0 0.0 0.03 0.28 0.28 8 1006.3
20260902225041 16 61 0.0 0.0 0.05 0.28 0.28 14 1006.3
20260902224549 16 61 0.0 0.0 0.05 0.28 0.28 15 1006.2
20260902224038 16 61 0.0 0.0 0.05 0.28 0.28 14 1006.2
20260902223538 16 61 0.0 0.0 0.05 0.28 0.28 14 1006.2
20260902223053 16 61 0.0 0.0 0.08 0.28 0.28 14 1006.3
20260902222537 16 61 0.0 0.0 0.08 0.28 0.28 16 1006.0
20260902222037 16 61 0.0 0.0 0.05 0.25 0.25 17 1006.1
20260902221539 16 61 0.0 0.0 0.05 0.25 0.25 18 1006.1
20260902221036 16 61 0.0 0.0 0.08 0.25 0.25 24 1006.1
20260902220534 16 61 0.0 0.0 0.08 0.25 0.25 28 1006.0
20260902220036 16 61 0.0 0.0 0.08 0.25 0.25 28 1005.9
20260902215532 16 61 0.0 0.0 0.10 0.25 0.25 26 1005.7
20260902215032 16 61 0.0 0.0 0.08 0.23 0.23 28 1005.6
20260902214533 16 61 0.0 0.0 0.08 0.23 0.23 33 1005.8
20260902214031 16 60 0.0 0.0 0.10 0.23 0.23 36 1005.8
20260902213529 16 60 0.0 0.0 0.08 0.20 0.20 38 1005.7
20260902213029 16 62 0.0 0.0 0.08 0.20 0.20 40 1005.8
20260902212529 16 64 0.0 0.0 0.10 0.20 0.20 40 1005.9
20260902212028 16 23 0.0 0.0 0.10 0.20 0.20 43 1005.9